Time,TemperatureF,DewpointF,PressureIn,WindDirection,WindDirectionDegrees,WindSpeedMPH,WindSpeedGustMPH,Humidity,HourlyPrecipIn,Conditions,Clouds,dailyrainin,SolarRadiationWatts/m^2,SoftwareType,DateUTC
2014-02-14 00:03:00,42.3,36.5,29.49,WSW,248,10.2,13.8,80,0.00,RA,,0.00,0.0,WeatherDisplay:10.37,2014-02-13 23:03:00,
2014-02-14 00:08:00,42.3,36.9,29.49,WSW,248,6.8,10.4,81,0.00,RA,,0.00,0.0,WeatherDisplay:10.37,2014-02-13 23:08:00,
2014-02-14 00:13:00,42.2,36.8,29.49,WSW,248,7.5,10.4,81,0.00,RA,,0.00,0.0,WeatherDisplay:10.37,2014-02-13 23:13:00,
2014-02-14 00:18:00,42.1,36.7,29.49,WSW,254,8.0,9.2,81,0.00,RA,,0.00,0.0,WeatherDisplay:10.37,2014-02-13 23:18:00,
2014-02-14 00:23:00,42.1,36.7,29.49,WSW,256,11.6,17.0,81,0.00,RA,,0.00,0.0,WeatherDisplay:10.37,2014-02-13 23:23:00,
2014-02-14 00:28:00,42.4,36.6,29.49,West,265,10.5,13.8,80,0.00,FEW,,0.00,0.0,WeatherDisplay:10.37,2014-02-13 23:28:00,
2014-02-14 00:33:00,42.4,36.6,29.50,WSW,242,8.0,8.1,80,0.00,SCT,,0.00,0.0,WeatherDisplay:10.37,2014-02-13 23:33:00,
2014-02-14 00:38:00,42.1,36.7,29.50,WSW,248,1.5,6.9,81,0.00,SCT,,0.00,0.0,WeatherDisplay:10.37,2014-02-13 23:38:00,
2014-02-14 00:43:00,41.7,36.3,29.50,WSW,248,1.9,4.6,81,0.00,SCT,,0.00,0.0,WeatherDisplay:10.37,2014-02-13 23:43:00,
2014-02-14 00:48:00,41.2,35.8,29.51,WSW,248,2.1,4.6,81,0.00,SCT,,0.00,0.0,WeatherDisplay:10.37,2014-02-13 23:48:00,
2014-02-14 00:53:00,40.6,35.5,29.51,WSW,248,3.1,4.6,82,0.00,SCT,,0.00,0.0,WeatherDisplay:10.37,2014-02-13 23:53:00,
2014-02-14 00:58:00,40.2,35.7,29.51,WSW,248,2.5,6.9,84,0.00,SCT,,0.00,0.0,WeatherDisplay:10.37,2014-02-13 23:58:00,
2014-02-14 01:03:00,40.1,35.9,29.52,WSW,248,1.7,4.6,85,0.00,FEW,,0.00,0.0,WeatherDisplay:10.37,2014-02-14 00:03:00,
2014-02-14 01:08:00,40.0,35.8,29.52,WSW,248,0.9,3.5,85,0.00,FEW,,0.00,0.0,WeatherDisplay:10.37,2014-02-14 00:08:00,
2014-02-14 01:13:00,39.9,36.0,29.52,WSW,248,3.2,4.6,86,0.00,FEW,,0.00,0.0,WeatherDisplay:10.37,2014-02-14 00:13:00,
2014-02-14 01:18:00,39.8,35.9,29.52,WSW,248,2.9,6.0,86,0.00,FEW,,0.00,0.0,WeatherDisplay:10.37,2014-02-14 00:18:00,
2014-02-14 01:23:00,39.8,36.2,29.53,WSW,239,6.2,6.9,87,0.00,FEW,,0.00,0.0,WeatherDisplay:10.37,2014-02-14 00:23:00,
2014-02-14 01:28:00,39.8,36.2,29.53,WSW,238,2.9,6.9,87,0.00,FEW,,0.00,0.0,WeatherDisplay:10.37,2014-02-14 00:28:00,
2014-02-14 01:33:00,39.8,36.2,29.53,WSW,238,2.9,5.8,87,0.00,BKN,,0.00,0.0,WeatherDisplay:10.37,2014-02-14 00:33:00,
2014-02-14 01:38:00,39.7,36.1,29.54,WSW,238,0.8,3.5,87,0.00,BKN,,0.00,0.0,WeatherDisplay:10.37,2014-02-14 00:38:00,
2014-02-14 01:43:00,39.6,35.7,29.54,WSW,238,2.4,4.6,86,0.00,BKN,,0.00,0.0,WeatherDisplay:10.37,2014-02-14 00:43:00,
2014-02-14 01:48:00,39.4,35.8,29.54,WSW,238,0.0,0.0,87,0.00,BKN,,0.00,0.0,WeatherDisplay:10.37,2014-02-14 00:48:00,
2014-02-14 01:53:00,39.5,35.9,29.55,WSW,241,6.5,10.4,87,0.00,BKN,,0.00,0.0,WeatherDisplay:10.37,2014-02-14 00:53:00,
2014-02-14 01:58:00,39.8,36.5,29.54,WSW,250,3.6,6.9,88,0.00,BKN,,0.00,0.0,WeatherDisplay:10.37,2014-02-14 00:58:00,
2014-02-14 02:03:00,39.9,36.6,29.55,SW,223,4.8,10.4,88,0.00,SCT,,0.00,0.0,WeatherDisplay:10.37,2014-02-14 01:03:00,
2014-02-14 02:08:00,40.0,36.7,29.55,SW,225,4.5,5.0,88,0.00,SCT,,0.00,0.0,WeatherDisplay:10.37,2014-02-14 01:08:00,
2014-02-14 02:13:00,40.0,36.7,29.55,SW,227,5.7,6.0,88,0.00,SCT,,0.00,0.0,WeatherDisplay:10.37,2014-02-14 01:13:00,
2014-02-14 02:18:00,39.9,36.6,29.56,WSW,241,6.4,6.9,88,0.00,SCT,,0.00,0.0,WeatherDisplay:10.37,2014-02-14 01:18:00,
2014-02-14 02:23:00,39.7,36.4,29.55,WSW,244,6.9,9.2,88,0.00,SCT,,0.00,0.0,WeatherDisplay:10.37,2014-02-14 01:23:00,
2014-02-14 02:28:00,39.6,36.3,29.55,SW,235,6.2,6.9,88,0.00,SCT,,0.00,0.0,WeatherDisplay:10.37,2014-02-14 01:28:00,
2014-02-14 02:33:00,39.4,36.1,29.56,SW,217,7.0,11.5,88,0.00,SCT,,0.00,0.0,WeatherDisplay:10.37,2014-02-14 01:33:00,
2014-02-14 02:38:00,39.4,36.1,29.56,SW,219,5.3,12.7,88,0.00,SCT,,0.00,0.0,WeatherDisplay:10.37,2014-02-14 01:38:00,
2014-02-14 02:43:00,39.3,36.0,29.56,SW,215,5.8,8.1,88,0.00,SCT,,0.00,0.0,WeatherDisplay:10.37,2014-02-14 01:43:00,
2014-02-14 02:48:00,39.1,36.1,29.56,SW,228,4.9,13.8,89,0.00,SCT,,0.00,0.0,WeatherDisplay:10.37,2014-02-14 01:48:00,
2014-02-14 02:53:00,39.0,36.0,29.56,SW,229,5.1,15.0,89,0.00,SCT,,0.00,0.0,WeatherDisplay:10.37,2014-02-14 01:53:00,
2014-02-14 02:58:00,38.9,35.9,29.56,SW,221,5.3,12.7,89,0.00,SCT,,0.00,0.0,WeatherDisplay:10.37,2014-02-14 01:58:00,
2014-02-14 03:03:00,38.8,35.8,29.56,SW,235,5.9,11.5,89,0.00,FEW,,0.00,0.0,WeatherDisplay:10.37,2014-02-14 02:03:00,
2014-02-14 03:08:00,38.6,35.6,29.56,WSW,258,6.3,10.4,89,0.00,FEW,,0.00,0.0,WeatherDisplay:10.37,2014-02-14 02:08:00,
2014-02-14 03:13:00,38.5,35.5,29.56,SW,226,5.4,11.5,89,0.00,FEW,,0.00,0.0,WeatherDisplay:10.37,2014-02-14 02:13:00,
2014-02-14 03:18:00,38.3,35.3,29.57,SW,222,6.5,16.1,89,0.00,FEW,,0.00,0.0,WeatherDisplay:10.37,2014-02-14 02:18:00,
2014-02-14 03:23:00,38.2,35.5,29.57,SW,216,6.6,9.2,90,0.00,FEW,,0.00,0.0,WeatherDisplay:10.37,2014-02-14 02:23:00,
2014-02-14 03:28:00,38.1,35.4,29.56,WSW,246,5.8,15.0,90,0.00,FEW,,0.00,0.0,WeatherDisplay:10.37,2014-02-14 02:28:00,
2014-02-14 03:33:00,38.1,35.4,29.56,SW,219,7.2,11.5,90,0.00,CLR,,0.00,0.0,WeatherDisplay:10.37,2014-02-14 02:33:00,
2014-02-14 03:38:00,38.1,35.4,29.56,WSW,238,5.2,11.5,90,0.00,CLR,,0.00,0.0,WeatherDisplay:10.37,2014-02-14 02:38:00,
2014-02-14 03:43:00,38.1,35.4,29.57,SW,234,6.2,10.4,90,0.00,CLR,,0.00,0.0,WeatherDisplay:10.37,2014-02-14 02:43:00,
2014-02-14 03:48:00,38.1,35.7,29.56,SW,221,5.9,11.5,91,0.00,CLR,,0.00,0.0,WeatherDisplay:10.37,2014-02-14 02:48:00,
2014-02-14 03:53:00,38.2,35.8,29.56,WSW,238,6.3,10.0,91,0.00,CLR,,0.00,0.0,WeatherDisplay:10.37,2014-02-14 02:53:00,
2014-02-14 03:58:00,38.2,35.8,29.56,SW,235,6.4,10.4,91,0.00,CLR,,0.00,0.0,WeatherDisplay:10.37,2014-02-14 02:58:00,
2014-02-14 04:03:00,38.2,35.8,29.56,WSW,258,7.0,10.4,91,0.00,CLR,,0.00,0.0,WeatherDisplay:10.37,2014-02-14 03:03:00,
2014-02-14 04:08:00,38.2,35.8,29.56,WSW,238,6.7,11.5,91,0.00,CLR,,0.00,0.0,WeatherDisplay:10.37,2014-02-14 03:08:00,
2014-02-14 04:14:00,38.1,35.7,29.56,SW,232,5.2,11.5,91,0.00,CLR,,0.00,0.0,WeatherDisplay:10.37,2014-02-14 03:14:00,
2014-02-14 04:19:00,37.9,35.5,29.56,SW,235,5.2,9.2,91,0.00,CLR,,0.00,0.0,WeatherDisplay:10.37,2014-02-14 03:19:00,
2014-02-14 04:24:00,37.9,35.5,29.56,SW,235,5.5,5.5,91,0.00,CLR,,0.00,0.0,WeatherDisplay:10.37,2014-02-14 03:24:00,
2014-02-14 04:29:00,37.9,35.5,29.56,WSW,238,5.4,10.4,91,0.00,CLR,,0.00,0.0,WeatherDisplay:10.37,2014-02-14 03:29:00,
2014-02-14 04:34:00,37.8,35.7,29.56,SW,227,4.6,11.5,92,0.00,CLR,,0.00,0.0,WeatherDisplay:10.37,2014-02-14 03:34:00,
2014-02-14 04:39:00,37.9,35.8,29.55,SW,229,5.6,10.4,92,0.00,CLR,,0.00,0.0,WeatherDisplay:10.37,2014-02-14 03:39:00,
2014-02-14 04:44:00,37.9,35.8,29.56,SW,232,6.0,12.7,92,0.00,CLR,,0.00,0.0,WeatherDisplay:10.37,2014-02-14 03:44:00,
2014-02-14 04:49:00,37.9,35.8,29.56,SW,232,5.8,12.7,92,0.00,CLR,,0.00,0.0,WeatherDisplay:10.37,2014-02-14 03:49:00,
2014-02-14 04:54:00,38.0,35.9,29.56,SW,230,4.6,11.5,92,0.00,CLR,,0.00,0.0,WeatherDisplay:10.37,2014-02-14 03:54:00,
2014-02-14 04:59:00,38.0,35.9,29.56,WSW,237,7.0,11.5,92,0.00,CLR,,0.00,0.0,WeatherDisplay:10.37,2014-02-14 03:59:00,
2014-02-14 05:04:00,38.1,36.0,29.56,WSW,245,6.5,9.2,92,0.00,CLR,,0.00,0.0,WeatherDisplay:10.37,2014-02-14 04:04:00,
2014-02-14 05:09:00,38.0,35.9,29.56,WSW,239,5.1,9.2,92,0.00,CLR,,0.00,0.0,WeatherDisplay:10.37,2014-02-14 04:09:00,
2014-02-14 05:14:00,38.0,35.9,29.56,WSW,237,5.2,11.5,92,0.00,CLR,,0.00,0.0,WeatherDisplay:10.37,2014-02-14 04:14:00,
2014-02-14 05:19:00,38.0,35.9,29.57,SW,226,6.0,12.7,92,0.00,CLR,,0.00,0.0,WeatherDisplay:10.37,2014-02-14 04:19:00,
2014-02-14 05:24:00,37.9,35.8,29.57,SW,224,6.4,10.4,92,0.00,CLR,,0.00,0.0,WeatherDisplay:10.37,2014-02-14 04:24:00,
2014-02-14 05:29:00,38.0,35.9,29.57,SW,219,5.0,9.2,92,0.00,CLR,,0.00,0.0,WeatherDisplay:10.37,2014-02-14 04:29:00,
2014-02-14 05:34:00,37.9,35.8,29.57,SW,224,3.7,11.5,92,0.00,CLR,,0.00,0.0,WeatherDisplay:10.37,2014-02-14 04:34:00,
2014-02-14 05:39:00,37.9,35.8,29.57,SW,223,8.5,13.0,92,0.00,CLR,,0.00,0.0,WeatherDisplay:10.37,2014-02-14 04:39:00,
2014-02-14 05:44:00,37.9,35.8,29.57,SW,221,6.0,11.0,92,0.00,CLR,,0.00,0.0,WeatherDisplay:10.37,2014-02-14 04:44:00,
2014-02-14 05:49:00,38.0,35.9,29.57,SW,231,5.7,10.4,92,0.00,CLR,,0.00,0.0,WeatherDisplay:10.37,2014-02-14 04:49:00,
2014-02-14 05:54:00,37.9,35.8,29.57,SW,236,5.7,9.2,92,0.00,CLR,,0.00,0.0,WeatherDisplay:10.37,2014-02-14 04:54:00,
2014-02-14 05:59:00,37.9,35.8,29.57,SSW,210,7.4,11.5,92,0.00,CLR,,0.00,0.0,WeatherDisplay:10.37,2014-02-14 04:59:00,
2014-02-14 06:01:00,37.9,35.8,29.57,SW,230,5.4,11.5,92,0.00,CLR,,0.00,0.0,WeatherDisplay:10.37,2014-02-14 05:01:00,
2014-02-14 06:06:00,38.0,35.9,29.57,SW,219,6.3,11.5,92,0.00,FEW,,0.00,0.0,WeatherDisplay:10.37,2014-02-14 05:06:00,
2014-02-14 06:11:00,38.1,36.0,29.57,SW,230,8.0,12.7,92,0.00,FEW,,0.00,0.0,WeatherDisplay:10.37,2014-02-14 05:11:00,
2014-02-14 06:16:00,38.0,35.9,29.58,SW,228,5.6,11.5,92,0.00,FEW,,0.00,0.0,WeatherDisplay:10.37,2014-02-14 05:16:00,
2014-02-14 06:21:00,38.0,35.9,29.58,SW,224,6.2,11.5,92,0.00,FEW,,0.00,0.0,WeatherDisplay:10.37,2014-02-14 05:21:00,
2014-02-14 06:26:00,37.9,35.8,29.58,SW,218,7.1,10.4,92,0.00,FEW,,0.00,0.0,WeatherDisplay:10.37,2014-02-14 05:26:00,
2014-02-14 06:31:00,37.9,35.8,29.58,WSW,239,6.6,11.5,92,0.00,FEW,,0.00,0.0,WeatherDisplay:10.37,2014-02-14 05:31:00,
2014-02-14 06:36:00,37.9,35.5,29.58,SW,229,6.4,11.5,91,0.00,FEW,,0.00,0.0,WeatherDisplay:10.37,2014-02-14 05:36:00,
2014-02-14 06:41:00,37.8,35.4,29.58,SW,215,6.7,11.5,91,0.00,FEW,,0.00,0.0,WeatherDisplay:10.37,2014-02-14 05:41:00,
2014-02-14 06:46:00,37.7,35.3,29.58,SW,228,3.8,8.1,91,0.00,FEW,,0.00,0.0,WeatherDisplay:10.37,2014-02-14 05:46:00,
2014-02-14 06:51:00,37.7,35.3,29.58,SW,225,5.9,10.4,91,0.00,CLR,,0.00,0.0,WeatherDisplay:10.37,2014-02-14 05:51:00,
2014-02-14 06:56:00,37.6,35.5,29.59,SW,223,5.4,9.2,92,0.00,CLR,,0.00,0.0,WeatherDisplay:10.37,2014-02-14 05:56:00,
2014-02-14 07:01:00,37.6,35.5,29.59,SW,227,6.8,10.4,92,0.00,CLR,,0.00,0.0,WeatherDisplay:10.37,2014-02-14 06:01:00,
2014-02-14 07:06:00,37.5,35.4,29.59,SW,218,6.9,12.0,92,0.00,CLR,,0.00,0.0,WeatherDisplay:10.37,2014-02-14 06:06:00,
2014-02-14 07:11:00,37.4,35.3,29.59,SW,229,5.0,9.2,92,0.00,CLR,,0.00,0.0,WeatherDisplay:10.37,2014-02-14 06:11:00,
2014-02-14 07:16:00,37.4,35.3,29.59,SW,221,4.6,9.2,92,0.00,CLR,,0.00,0.0,WeatherDisplay:10.37,2014-02-14 06:16:00,
2014-02-14 07:21:00,37.4,35.3,29.59,SW,218,5.1,6.0,92,0.00,CLR,,0.00,0.0,WeatherDisplay:10.37,2014-02-14 06:21:00,
2014-02-14 07:26:00,37.4,35.3,29.59,SW,214,7.3,11.5,92,0.00,CLR,,0.00,0.0,WeatherDisplay:10.37,2014-02-14 06:26:00,
2014-02-14 07:31:00,37.5,35.4,29.60,SSW,211,4.4,6.9,92,0.00,CLR,,0.00,0.0,WeatherDisplay:10.37,2014-02-14 06:31:00,
2014-02-14 07:36:00,37.5,35.4,29.60,SW,220,7.7,10.4,92,0.00,CLR,,0.00,0.0,WeatherDisplay:10.37,2014-02-14 06:36:00,
2014-02-14 07:41:00,37.5,35.4,29.60,SW,228,5.0,9.2,92,0.00,CLR,,0.00,0.0,WeatherDisplay:10.37,2014-02-14 06:41:00,
2014-02-14 07:46:00,37.4,35.3,29.60,SW,217,6.9,10.4,92,0.00,CLR,,0.00,0.0,WeatherDisplay:10.37,2014-02-14 06:46:00,
2014-02-14 07:51:00,37.5,35.4,29.60,SW,217,7.0,11.5,92,0.00,CLR,,0.00,0.0,WeatherDisplay:10.37,2014-02-14 06:51:00,
2014-02-14 07:56:00,37.5,35.4,29.60,SW,223,5.0,11.5,92,0.00,CLR,,0.00,0.0,WeatherDisplay:10.37,2014-02-14 06:56:00,
2014-02-14 08:01:00,37.5,35.4,29.61,SW,216,6.1,10.4,92,0.00,CLR,,0.00,5.0,WeatherDisplay:10.37,2014-02-14 07:01:00,
2014-02-14 08:06:00,37.5,35.4,29.61,SW,227,4.4,9.2,92,0.00,CLR,,0.00,9.0,WeatherDisplay:10.37,2014-02-14 07:06:00,
2014-02-14 08:11:00,37.5,35.4,29.61,SW,221,7.6,11.5,92,0.00,CLR,,0.00,12.0,WeatherDisplay:10.37,2014-02-14 07:11:00,
2014-02-14 08:16:00,37.5,35.4,29.61,SW,221,9.1,12.0,92,0.00,CLR,,0.00,16.0,WeatherDisplay:10.37,2014-02-14 07:16:00,
2014-02-14 08:21:00,37.6,35.5,29.61,SW,221,8.0,10.4,92,0.00,CLR,,0.00,21.0,WeatherDisplay:10.37,2014-02-14 07:21:00,
2014-02-14 08:26:00,37.6,35.5,29.61,SW,215,6.0,11.5,92,0.00,CLR,,0.00,26.0,WeatherDisplay:10.37,2014-02-14 07:26:00,
2014-02-14 08:31:00,37.7,35.6,29.60,SW,224,9.2,15.0,92,0.00,CLR,,0.00,30.0,WeatherDisplay:10.37,2014-02-14 07:31:00,
2014-02-14 08:36:00,37.7,35.6,29.61,SW,215,7.4,11.5,92,0.00,CLR,,0.00,33.0,WeatherDisplay:10.37,2014-02-14 07:36:00,
2014-02-14 08:41:00,37.7,35.6,29.61,SW,219,8.2,11.5,92,0.00,CLR,,0.00,40.0,WeatherDisplay:10.37,2014-02-14 07:41:00,
2014-02-14 08:46:00,37.8,35.7,29.61,SW,220,9.5,16.1,92,0.00,CLR,,0.00,46.0,WeatherDisplay:10.37,2014-02-14 07:46:00,
2014-02-14 08:51:00,37.8,35.7,29.61,SW,223,9.0,11.5,92,0.00,CLR,,0.00,49.0,WeatherDisplay:10.37,2014-02-14 07:51:00,
2014-02-14 08:56:00,37.8,35.7,29.61,SW,215,7.8,15.0,92,0.00,CLR,,0.00,56.0,WeatherDisplay:10.37,2014-02-14 07:56:00,
2014-02-14 09:01:00,37.8,35.7,29.61,SW,217,8.3,11.5,92,0.00,BKN,,0.00,62.0,WeatherDisplay:10.37,2014-02-14 08:01:00,
2014-02-14 09:06:00,37.9,35.8,29.61,SSW,212,10.4,17.3,92,0.00,BKN,,0.00,65.0,WeatherDisplay:10.37,2014-02-14 08:06:00,
2014-02-14 09:11:00,37.9,35.8,29.61,SW,221,4.1,11.5,92,0.00,BKN,,0.00,69.0,WeatherDisplay:10.37,2014-02-14 08:11:00,
2014-02-14 09:16:00,38.0,35.9,29.61,SSW,213,9.9,11.5,92,0.00,BKN,,0.00,70.0,WeatherDisplay:10.37,2014-02-14 08:16:00,
2014-02-14 09:21:00,38.1,36.0,29.61,SW,215,4.1,10.4,92,0.00,BKN,,0.00,70.0,WeatherDisplay:10.37,2014-02-14 08:21:00,
2014-02-14 09:28:00,38.2,35.8,29.61,SSW,206,6.9,9.2,91,0.00,BKN,,0.00,70.0,WeatherDisplay:10.37,2014-02-14 08:28:00,
2014-02-14 09:33:00,38.3,35.9,29.61,SSW,196,4.7,9.2,91,0.00,BKN,,0.00,76.0,WeatherDisplay:10.37,2014-02-14 08:33:00,
2014-02-14 09:38:00,38.3,35.9,29.61,South,190,8.1,13.8,91,0.00,BKN,,0.00,84.0,WeatherDisplay:10.37,2014-02-14 08:38:00,
2014-02-14 09:43:00,38.3,35.9,29.61,South,190,8.8,16.1,91,0.00,BKN,,0.00,90.0,WeatherDisplay:10.37,2014-02-14 08:43:00,
2014-02-14 09:48:00,38.3,35.9,29.61,SSW,199,7.0,11.5,91,0.00,BKN,,0.00,97.0,WeatherDisplay:10.37,2014-02-14 08:48:00,
2014-02-14 09:53:00,38.3,35.9,29.60,SSW,192,7.9,11.5,91,0.00,BKN,,0.00,102.0,WeatherDisplay:10.37,2014-02-14 08:53:00,
2014-02-14 09:58:00,38.3,35.9,29.60,SSW,195,10.1,15.0,91,0.00,BKN,,0.00,107.0,WeatherDisplay:10.37,2014-02-14 08:58:00,
2014-02-14 10:03:00,38.4,36.0,29.60,SSW,194,9.5,15.0,91,0.00,BKN,,0.00,113.0,WeatherDisplay:10.37,2014-02-14 09:03:00,
2014-02-14 10:08:00,38.5,36.4,29.61,SSW,198,7.8,11.5,92,0.00,BKN,,0.00,123.0,WeatherDisplay:10.37,2014-02-14 09:08:00,
2014-02-14 10:13:00,38.6,36.2,29.61,SSW,202,5.5,11.5,91,0.00,BKN,,0.00,130.0,WeatherDisplay:10.37,2014-02-14 09:13:00,
2014-02-14 10:18:00,38.8,36.4,29.61,SW,229,8.5,12.7,91,0.00,BKN,,0.00,134.0,WeatherDisplay:10.37,2014-02-14 09:18:00,
2014-02-14 10:23:00,39.0,36.6,29.61,SSW,199,6.8,9.2,91,0.00,BKN,,0.00,149.0,WeatherDisplay:10.37,2014-02-14 09:23:00,
2014-02-14 10:28:00,39.1,36.7,29.61,SSW,193,10.0,12.7,91,0.00,BKN,,0.00,156.0,WeatherDisplay:10.37,2014-02-14 09:28:00,
2014-02-14 10:33:00,39.2,36.8,29.61,South,188,7.6,16.1,91,0.00,BKN,,0.00,160.0,WeatherDisplay:10.37,2014-02-14 09:33:00,
2014-02-14 10:38:00,39.4,37.0,29.61,SSW,192,6.1,16.1,91,0.00,BKN,,0.00,151.0,WeatherDisplay:10.37,2014-02-14 09:38:00,
2014-02-14 10:43:00,39.5,37.1,29.61,SSW,199,8.4,11.5,91,0.00,BKN,,0.00,139.0,WeatherDisplay:10.37,2014-02-14 09:43:00,
2014-02-14 10:48:00,39.6,36.9,29.61,SSW,200,6.8,12.7,90,0.00,BKN,,0.00,125.0,WeatherDisplay:10.37,2014-02-14 09:48:00,
2014-02-14 10:53:00,39.7,37.0,29.60,SSW,207,11.7,18.4,90,0.00,BKN,,0.00,114.0,WeatherDisplay:10.37,2014-02-14 09:53:00,
2014-02-14 10:58:00,39.9,37.2,29.60,SSW,202,5.3,10.4,90,0.00,OVC,,0.00,107.0,WeatherDisplay:10.37,2014-02-14 09:58:00,
2014-02-14 11:03:00,40.0,37.0,29.60,SSW,195,5.5,11.5,89,0.00,OVC,,0.00,114.0,WeatherDisplay:10.37,2014-02-14 10:03:00,
2014-02-14 11:08:00,40.2,37.5,29.60,SSW,198,8.4,11.5,90,0.00,BKN,,0.00,132.0,WeatherDisplay:10.37,2014-02-14 10:08:00,
2014-02-14 11:13:00,40.4,37.4,29.60,SSW,192,10.6,13.8,89,0.00,BKN,,0.00,151.0,WeatherDisplay:10.37,2014-02-14 10:13:00,
2014-02-14 11:18:00,40.6,37.6,29.59,SSW,196,11.1,15.0,89,0.00,BKN,,0.00,158.0,WeatherDisplay:10.37,2014-02-14 10:18:00,
2014-02-14 11:23:00,40.7,37.7,29.59,South,177,11.1,16.1,89,0.00,BKN,,0.00,156.0,WeatherDisplay:10.37,2014-02-14 10:23:00,
2014-02-14 11:28:00,40.8,37.8,29.59,South,169,6.2,11.5,89,0.00,BKN,,0.00,160.0,WeatherDisplay:10.37,2014-02-14 10:28:00,
2014-02-14 11:33:00,40.9,37.6,29.58,South,172,5.1,10.4,88,0.00,BKN,,0.00,167.0,WeatherDisplay:10.37,2014-02-14 10:33:00,
2014-02-14 11:38:00,40.9,37.6,29.58,SE,146,2.9,10.4,88,0.00,BKN,,0.00,176.0,WeatherDisplay:10.37,2014-02-14 10:38:00,
2014-02-14 11:43:00,40.9,37.6,29.58,SSE,161,4.2,5.8,88,0.00,BKN,,0.00,176.0,WeatherDisplay:10.37,2014-02-14 10:43:00,
2014-02-14 11:48:00,41.0,37.7,29.58,SSE,161,2.2,11.5,88,0.00,BKN,,0.00,183.0,WeatherDisplay:10.37,2014-02-14 10:48:00,
2014-02-14 11:53:00,41.1,37.8,29.58,South,173,7.0,11.5,88,0.00,BKN,,0.00,167.0,WeatherDisplay:10.37,2014-02-14 10:53:00,
2014-02-14 11:58:00,41.2,37.9,29.58,SSE,160,4.5,9.2,88,0.00,BKN,,0.00,158.0,WeatherDisplay:10.37,2014-02-14 10:58:00,
2014-02-14 12:03:00,41.2,37.9,29.57,South,188,5.9,13.8,88,0.00,BKN,,0.00,155.0,WeatherDisplay:10.37,2014-02-14 11:03:00,
2014-02-14 12:08:00,41.3,38.0,29.57,SSE,148,6.0,12.7,88,0.00,BKN,,0.00,155.0,WeatherDisplay:10.37,2014-02-14 11:08:00,
2014-02-14 12:13:00,41.3,38.0,29.57,South,180,7.4,10.4,88,0.00,BKN,,0.00,153.0,WeatherDisplay:10.37,2014-02-14 11:13:00,
2014-02-14 12:18:00,41.3,38.0,29.56,SSE,168,7.0,11.5,88,0.00,BKN,,0.00,158.0,WeatherDisplay:10.37,2014-02-14 11:18:00,
2014-02-14 12:23:00,41.5,38.2,29.56,SSE,165,8.5,11.5,88,0.00,BKN,,0.00,185.0,WeatherDisplay:10.37,2014-02-14 11:23:00,
2014-02-14 12:28:00,41.5,37.9,29.55,South,171,5.2,12.7,87,0.00,BKN,,0.00,186.0,WeatherDisplay:10.37,2014-02-14 11:28:00,
2014-02-14 12:33:00,41.7,38.1,29.55,SSW,194,4.9,15.0,87,0.00,BKN,,0.00,179.0,WeatherDisplay:10.37,2014-02-14 11:33:00,
2014-02-14 12:38:00,41.7,38.1,29.55,South,171,4.9,10.4,87,0.00,BKN,,0.00,160.0,WeatherDisplay:10.37,2014-02-14 11:38:00,
2014-02-14 12:43:00,41.7,38.1,29.55,SE,142,8.5,18.4,87,0.00,OVC,,0.00,142.0,WeatherDisplay:10.37,2014-02-14 11:43:00,
2014-02-14 12:48:00,41.7,38.1,29.55,SSE,159,7.8,11.5,87,0.00,OVC,,0.00,142.0,WeatherDisplay:10.37,2014-02-14 11:48:00,
2014-02-14 12:53:00,41.8,38.2,29.55,SSE,162,8.7,17.3,87,0.00,OVC,,0.00,137.0,WeatherDisplay:10.37,2014-02-14 11:53:00,
2014-02-14 12:58:00,41.9,38.3,29.55,South,175,5.0,11.5,87,0.00,OVC,,0.00,132.0,WeatherDisplay:10.37,2014-02-14 11:58:00,
2014-02-14 13:03:00,42.0,38.4,29.55,South,177,7.0,11.5,87,0.00,OVC,,0.00,98.0,WeatherDisplay:10.37,2014-02-14 12:03:00,
2014-02-14 13:08:00,42.1,38.5,29.55,South,187,8.1,12.7,87,0.00,OVC,,0.00,69.0,WeatherDisplay:10.37,2014-02-14 12:08:00,
2014-02-14 13:13:00,42.1,38.2,29.54,South,179,7.6,12.7,86,0.00,OVC,,0.00,76.0,WeatherDisplay:10.37,2014-02-14 12:13:00,
2014-02-14 13:18:00,42.2,38.6,29.54,South,182,6.0,11.5,87,0.00,OVC,,0.00,100.0,WeatherDisplay:10.37,2014-02-14 12:18:00,
2014-02-14 13:23:00,42.4,38.8,29.54,SSW,195,11.1,17.3,87,0.00,OVC,,0.00,72.0,WeatherDisplay:10.37,2014-02-14 12:23:00,
2014-02-14 13:28:00,42.5,38.6,29.54,SSW,202,9.9,16.1,86,0.00,OVC,,0.00,42.0,WeatherDisplay:10.37,2014-02-14 12:28:00,
2014-02-14 13:33:00,42.6,38.7,29.54,SSW,194,9.9,14.0,86,0.00,OVC,,0.00,67.0,WeatherDisplay:10.37,2014-02-14 12:33:00,
2014-02-14 13:38:00,42.7,38.8,29.53,South,186,7.1,18.4,86,0.00,OVC,,0.00,72.0,WeatherDisplay:10.37,2014-02-14 12:38:00,
2014-02-14 13:43:00,42.9,39.0,29.53,SSW,193,10.4,12.0,86,0.00,OVC,,0.00,76.0,WeatherDisplay:10.37,2014-02-14 12:43:00,
2014-02-14 13:48:00,43.0,39.1,29.53,SSW,193,11.2,13.8,86,0.00,OVC,,0.00,77.0,WeatherDisplay:10.37,2014-02-14 12:48:00,
2014-02-14 13:53:00,43.1,39.2,29.53,SSW,192,11.5,16.1,86,0.00,OVC,,0.00,44.0,WeatherDisplay:10.37,2014-02-14 12:53:00,
2014-02-14 13:58:00,43.1,39.2,29.52,South,175,6.9,12.7,86,0.00,OVC,,0.00,69.0,WeatherDisplay:10.37,2014-02-14 12:58:00,
2014-02-14 14:03:00,43.2,39.3,29.52,SSW,197,9.4,19.0,86,0.00,OVC,,0.00,54.0,WeatherDisplay:10.37,2014-02-14 13:03:00,
2014-02-14 14:08:00,43.2,39.0,29.51,South,174,8.1,15.0,85,0.00,OVC,,0.00,40.0,WeatherDisplay:10.37,2014-02-14 13:08:00,
2014-02-14 14:13:00,43.3,39.1,29.51,SSW,200,12.3,18.4,85,0.00,OVC,,0.00,54.0,WeatherDisplay:10.37,2014-02-14 13:13:00,
2014-02-14 14:18:00,43.3,39.1,29.51,South,190,6.8,18.4,85,0.00,OVC,,0.00,81.0,WeatherDisplay:10.37,2014-02-14 13:18:00,
2014-02-14 14:23:00,43.4,39.2,29.51,South,177,5.6,12.7,85,0.00,OVC,,0.00,47.0,WeatherDisplay:10.37,2014-02-14 13:23:00,
2014-02-14 14:28:00,43.4,39.2,29.51,South,176,4.7,10.0,85,0.00,OVC,,0.00,39.0,WeatherDisplay:10.37,2014-02-14 13:28:00,
2014-02-14 14:33:00,43.3,39.1,29.51,South,190,6.1,15.0,85,0.00,BKN,,0.00,42.0,WeatherDisplay:10.37,2014-02-14 13:33:00,
2014-02-14 14:38:00,43.3,39.4,29.50,SSW,203,8.9,16.0,86,0.00,BKN,,0.00,40.0,WeatherDisplay:10.37,2014-02-14 13:38:00,
2014-02-14 14:43:00,43.1,39.2,29.50,South,173,4.5,17.3,86,0.00,BKN,,0.00,33.0,WeatherDisplay:10.37,2014-02-14 13:43:00,
2014-02-14 14:48:00,43.0,39.1,29.50,South,186,8.8,16.1,86,0.01,RA,,0.01,32.0,WeatherDisplay:10.37,2014-02-14 13:48:00,
2014-02-14 14:53:00,42.9,39.3,29.49,South,190,3.6,15.0,87,0.01,RA,,0.01,30.0,WeatherDisplay:10.37,2014-02-14 13:53:00,
2014-02-14 14:58:00,42.7,39.1,29.49,SSW,193,4.9,6.9,87,0.01,RA,,0.01,35.0,WeatherDisplay:10.37,2014-02-14 13:58:00,
2014-02-14 15:03:00,42.6,39.3,29.48,SSE,164,7.4,13.8,88,0.02,RA,,0.02,32.0,WeatherDisplay:10.37,2014-02-14 14:03:00,
2014-02-14 15:08:00,42.5,39.2,29.47,SSE,152,10.4,15.0,88,0.02,RA,,0.02,35.0,WeatherDisplay:10.37,2014-02-14 14:08:00,
2014-02-14 15:13:00,42.4,39.4,29.47,SSE,165,10.9,18.4,89,0.02,RA,,0.02,37.0,WeatherDisplay:10.37,2014-02-14 14:13:00,
2014-02-14 15:18:00,42.3,39.3,29.46,SSE,159,11.0,17.3,89,0.03,RA,,0.03,37.0,WeatherDisplay:10.37,2014-02-14 14:18:00,
2014-02-14 15:23:00,42.2,39.5,29.45,SSE,162,12.7,23.0,90,0.03,RA,,0.04,35.0,WeatherDisplay:10.37,2014-02-14 14:23:00,
2014-02-14 15:28:00,42.1,39.4,29.44,SSE,154,12.1,20.7,90,0.04,RA,,0.04,37.0,WeatherDisplay:10.37,2014-02-14 14:28:00,
2014-02-14 15:33:00,42.0,39.3,29.43,SSE,161,13.6,18.4,90,0.04,-RA,,0.04,35.0,WeatherDisplay:10.37,2014-02-14 14:33:00,
2014-02-14 15:38:00,42.0,39.3,29.43,SSE,161,13.1,18.4,90,0.05,-RA,,0.05,35.0,WeatherDisplay:10.37,2014-02-14 14:38:00,
2014-02-14 15:43:00,42.0,39.3,29.42,SSE,152,12.0,18.4,90,0.05,-RA,,0.05,32.0,WeatherDisplay:10.37,2014-02-14 14:43:00,
2014-02-14 15:48:00,42.0,39.3,29.42,SSE,155,16.5,20.7,90,0.04,-RA,,0.05,33.0,WeatherDisplay:10.37,2014-02-14 14:48:00,
2014-02-14 15:53:00,42.0,39.3,29.41,South,175,16.5,21.9,90,0.05,-RA,,0.06,30.0,WeatherDisplay:10.37,2014-02-14 14:53:00,
2014-02-14 15:58:00,41.9,39.2,29.41,SSE,163,15.6,21.9,90,0.05,-RA,,0.06,35.0,WeatherDisplay:10.37,2014-02-14 14:58:00,
2014-02-14 16:03:00,41.9,39.2,29.40,SSE,163,10.6,17.3,90,0.04,-RA,,0.06,32.0,WeatherDisplay:10.37,2014-02-14 15:03:00,
2014-02-14 16:08:00,41.9,39.2,29.40,SSE,154,14.2,21.0,90,0.04,-RA,,0.06,35.0,WeatherDisplay:10.37,2014-02-14 15:08:00,
2014-02-14 16:13:00,41.9,39.2,29.40,SSE,157,17.1,24.2,90,0.04,-RA,,0.06,30.0,WeatherDisplay:10.37,2014-02-14 15:13:00,
2014-02-14 16:18:00,41.8,39.1,29.40,SSE,159,16.4,19.6,90,0.04,-RA,,0.07,26.0,WeatherDisplay:10.37,2014-02-14 15:18:00,
2014-02-14 16:23:00,41.8,39.3,29.39,SSE,152,18.8,24.2,91,0.04,-RA,,0.07,26.0,WeatherDisplay:10.37,2014-02-14 15:23:00,
2014-02-14 16:28:00,41.8,39.3,29.39,SSE,160,14.7,26.5,91,0.04,-RA,,0.08,23.0,WeatherDisplay:10.37,2014-02-14 15:28:00,
2014-02-14 16:33:00,41.7,39.2,29.39,SSE,161,18.2,24.2,91,0.04,-RA,,0.08,21.0,WeatherDisplay:10.37,2014-02-14 15:33:00,
2014-02-14 16:38:00,41.7,39.2,29.38,SSE,156,19.1,24.2,91,0.04,-RA,,0.09,19.0,WeatherDisplay:10.37,2014-02-14 15:38:00,
2014-02-14 16:44:00,41.7,39.2,29.38,South,169,19.1,28.8,91,0.04,-RA,,0.09,19.0,WeatherDisplay:10.37,2014-02-14 15:44:00,
2014-02-14 16:49:00,41.6,39.1,29.37,SSE,159,22.8,27.6,91,0.05,-RA,,0.10,11.0,WeatherDisplay:10.37,2014-02-14 15:49:00,
2014-02-14 16:54:00,41.6,39.1,29.37,South,173,16.9,26.0,91,0.06,-RA,,0.10,9.0,WeatherDisplay:10.37,2014-02-14 15:54:00,
2014-02-14 16:59:00,41.5,39.0,29.37,SSE,163,12.8,19.6,91,0.06,-RA,,0.11,7.0,WeatherDisplay:10.37,2014-02-14 15:59:00,
2014-02-14 17:04:00,41.5,39.3,29.37,South,183,14.0,20.7,92,0.07,-RA,,0.13,5.0,WeatherDisplay:10.37,2014-02-14 16:04:00,
2014-02-14 17:09:00,41.5,39.3,29.37,SE,144,19.3,26.5,92,0.08,RA,,0.13,0.0,WeatherDisplay:10.37,2014-02-14 16:09:00,
2014-02-14 17:14:00,41.5,39.3,29.36,SSE,149,16.0,26.5,92,0.08,RA,,0.14,0.0,WeatherDisplay:10.37,2014-02-14 16:14:00,
2014-02-14 17:19:00,41.4,39.2,29.35,SSE,163,17.8,25.3,92,0.09,RA,,0.15,0.0,WeatherDisplay:10.37,2014-02-14 16:19:00,
2014-02-14 17:24:00,41.4,39.2,29.35,SSE,161,15.0,22.0,92,0.09,RA,,0.16,0.0,WeatherDisplay:10.37,2014-02-14 16:24:00,
2014-02-14 17:29:00,41.4,39.2,29.35,SSE,158,17.0,24.2,92,0.09,RA,,0.17,0.0,WeatherDisplay:10.37,2014-02-14 16:29:00,
2014-02-14 17:34:00,41.4,39.2,29.34,SSE,147,16.5,26.5,92,0.09,RA,,0.17,0.0,WeatherDisplay:10.37,2014-02-14 16:34:00,
2014-02-14 17:39:00,41.4,39.5,29.33,SSE,156,23.2,32.2,93,0.10,RA,,0.18,0.0,WeatherDisplay:10.37,2014-02-14 16:39:00,
2014-02-14 17:44:00,41.4,39.5,29.33,SSE,161,16.2,23.0,93,0.10,RA,,0.19,0.0,WeatherDisplay:10.37,2014-02-14 16:44:00,
2014-02-14 17:49:00,41.5,39.6,29.33,SSE,164,16.3,26.5,93,0.10,RA,,0.20,0.0,WeatherDisplay:10.37,2014-02-14 16:49:00,
2014-02-14 17:54:00,41.5,39.6,29.32,SSE,156,16.8,24.2,93,0.10,RA,,0.21,0.0,WeatherDisplay:10.37,2014-02-14 16:54:00,
2014-02-14 17:59:00,41.5,39.6,29.32,South,169,14.1,26.5,93,0.11,RA,,0.22,0.0,WeatherDisplay:10.37,2014-02-14 16:59:00,
2014-02-14 18:04:00,41.5,39.6,29.32,South,173,13.8,24.2,93,0.10,RA,,0.22,0.0,WeatherDisplay:10.37,2014-02-14 17:04:00,
2014-02-14 18:09:00,41.6,39.7,29.32,SSE,167,17.4,24.2,93,0.10,RA,,0.23,0.0,WeatherDisplay:10.37,2014-02-14 17:09:00,
2014-02-14 18:14:00,41.5,39.6,29.31,SSE,153,17.5,26.5,93,0.09,RA,,0.24,0.0,WeatherDisplay:10.37,2014-02-14 17:14:00,
2014-02-14 18:19:00,41.6,40.0,29.31,South,180,12.6,26.5,94,0.09,RA,,0.24,0.0,WeatherDisplay:10.37,2014-02-14 17:19:00,
2014-02-14 18:24:00,41.7,40.1,29.31,SSE,147,13.4,20.0,94,0.09,RA,,0.26,0.0,WeatherDisplay:10.37,2014-02-14 17:24:00,
2014-02-14 18:29:00,41.7,40.1,29.30,SSE,159,15.6,21.9,94,0.10,RA,,0.27,0.0,WeatherDisplay:10.37,2014-02-14 17:29:00,
2014-02-14 18:34:00,41.8,40.2,29.30,SSE,161,15.6,19.6,94,0.10,RA,,0.28,0.0,WeatherDisplay:10.37,2014-02-14 17:34:00,
2014-02-14 18:39:00,41.8,40.2,29.30,SSE,165,17.2,26.5,94,0.09,RA,,0.28,0.0,WeatherDisplay:10.37,2014-02-14 17:39:00,
2014-02-14 18:44:00,41.8,40.2,29.30,SSE,161,12.8,19.6,94,0.10,RA,,0.29,0.0,WeatherDisplay:10.37,2014-02-14 17:44:00,
2014-02-14 18:49:00,41.8,40.2,29.29,SSE,160,12.6,19.6,94,0.11,RA,,0.30,0.0,WeatherDisplay:10.37,2014-02-14 17:49:00,
2014-02-14 18:54:00,41.9,40.3,29.29,SSE,152,15.5,17.3,94,0.10,RA,,0.31,0.0,WeatherDisplay:10.37,2014-02-14 17:54:00,
2014-02-14 18:59:00,42.0,40.4,29.29,SSE,166,11.4,17.3,94,0.09,RA,,0.31,0.0,WeatherDisplay:10.37,2014-02-14 17:59:00,
2014-02-14 19:04:00,42.0,40.4,29.28,SSE,156,8.8,15.0,94,0.09,RA,,0.32,0.0,WeatherDisplay:10.37,2014-02-14 18:04:00,
2014-02-14 19:09:00,42.1,40.8,29.28,SSE,160,13.7,19.6,95,0.09,RA,,0.32,0.0,WeatherDisplay:10.37,2014-02-14 18:09:00,
2014-02-14 19:14:00,42.2,40.9,29.27,SSE,163,8.5,10.4,95,0.09,RA,,0.32,0.0,WeatherDisplay:10.37,2014-02-14 18:14:00,
2014-02-14 19:19:00,42.4,41.0,29.27,South,189,13.3,20.7,95,0.09,RA,,0.32,0.0,WeatherDisplay:10.37,2014-02-14 18:19:00,
2014-02-14 19:24:00,42.5,41.1,29.27,South,172,7.0,12.7,95,0.07,RA,,0.32,0.0,WeatherDisplay:10.37,2014-02-14 18:24:00,
2014-02-14 19:29:00,42.6,41.2,29.27,South,171,11.5,17.3,95,0.06,RA,,0.33,0.0,WeatherDisplay:10.37,2014-02-14 18:29:00,
2014-02-14 19:34:00,42.8,41.4,29.27,South,170,8.0,13.8,95,0.06,RA,,0.33,0.0,WeatherDisplay:10.37,2014-02-14 18:34:00,
2014-02-14 19:39:00,42.9,41.5,29.26,SSE,167,7.2,12.7,95,0.06,RA,,0.34,0.0,WeatherDisplay:10.37,2014-02-14 18:39:00,
2014-02-14 19:44:00,42.9,41.5,29.25,SSE,161,8.3,12.7,95,0.06,-RA,,0.34,0.0,WeatherDisplay:10.37,2014-02-14 18:44:00,
2014-02-14 19:49:00,42.9,41.5,29.24,SSE,165,9.8,17.3,95,0.04,-RA,,0.34,0.0,WeatherDisplay:10.37,2014-02-14 18:49:00,
2014-02-14 19:54:00,43.0,41.6,29.24,South,173,5.6,16.1,95,0.03,-RA,,0.34,0.0,WeatherDisplay:10.37,2014-02-14 18:54:00,
2014-02-14 19:59:00,43.1,41.7,29.24,South,179,6.7,15.0,95,0.03,-RA,,0.34,0.0,WeatherDisplay:10.37,2014-02-14 18:59:00,
2014-02-14 20:04:00,43.2,41.8,29.23,South,190,7.8,15.0,95,0.02,-RA,,0.34,0.0,WeatherDisplay:10.37,2014-02-14 19:04:00,
2014-02-14 20:09:00,43.3,41.9,29.23,South,186,12.5,18.4,95,0.02,-RA,,0.34,0.0,WeatherDisplay:10.37,2014-02-14 19:09:00,
2014-02-14 20:14:00,43.5,42.1,29.23,SSW,195,6.7,12.7,95,0.02,-RA,,0.34,0.0,WeatherDisplay:10.37,2014-02-14 19:14:00,
2014-02-14 20:19:00,43.6,42.2,29.22,SSE,163,7.4,16.1,95,0.02,-RA,,0.34,0.0,WeatherDisplay:10.37,2014-02-14 19:19:00,
2014-02-14 20:24:00,43.6,42.2,29.22,SSE,152,7.6,11.5,95,0.02,-RA,,0.35,0.0,WeatherDisplay:10.37,2014-02-14 19:24:00,
2014-02-14 20:29:00,43.7,42.3,29.21,SSE,156,8.9,17.3,95,0.02,-RA,,0.35,0.0,WeatherDisplay:10.37,2014-02-14 19:29:00,
2014-02-14 20:34:00,43.9,42.5,29.21,SE,141,9.9,11.0,95,0.02,-RA,,0.35,0.0,WeatherDisplay:10.37,2014-02-14 19:34:00,
2014-02-14 20:39:00,43.9,42.5,29.20,South,173,7.2,13.8,95,0.01,-RA,,0.35,0.0,WeatherDisplay:10.37,2014-02-14 19:39:00,
2014-02-14 20:44:00,44.1,42.7,29.20,South,180,8.0,13.8,95,0.01,RA,,0.35,0.0,WeatherDisplay:10.37,2014-02-14 19:44:00,
2014-02-14 20:49:00,44.2,42.8,29.20,SSE,150,11.4,17.3,95,0.01,SCT,,0.35,0.0,WeatherDisplay:10.37,2014-02-14 19:49:00,
2014-02-14 20:54:00,44.3,42.9,29.19,South,181,5.9,13.8,95,0.01,SCT,,0.35,0.0,WeatherDisplay:10.37,2014-02-14 19:54:00,
2014-02-14 20:59:00,44.5,43.1,29.18,SSE,165,10.8,19.6,95,0.01,SCT,,0.35,0.0,WeatherDisplay:10.37,2014-02-14 19:59:00,
2014-02-14 21:04:00,44.5,43.1,29.18,SSE,161,12.5,18.4,95,0.01,SCT,,0.35,0.0,WeatherDisplay:10.37,2014-02-14 20:04:00,
2014-02-14 21:09:00,44.7,43.1,29.18,South,169,11.4,15.0,94,0.01,SCT,,0.35,0.0,WeatherDisplay:10.37,2014-02-14 20:09:00,
2014-02-14 21:14:00,44.7,43.1,29.17,South,186,11.3,26.5,94,0.01,SCT,,0.35,0.0,WeatherDisplay:10.37,2014-02-14 20:14:00,
2014-02-14 21:19:00,44.9,43.3,29.17,SSE,165,7.9,20.7,94,0.01,SCT,,0.35,0.0,WeatherDisplay:10.37,2014-02-14 20:19:00,
2014-02-14 21:24:00,45.1,43.5,29.17,South,179,8.4,13.8,94,0.00,SCT,,0.35,0.0,WeatherDisplay:10.37,2014-02-14 20:24:00,
2014-02-14 21:29:00,45.2,43.6,29.16,SSE,168,9.9,17.3,94,0.00,SCT,,0.35,0.0,WeatherDisplay:10.37,2014-02-14 20:29:00,
2014-02-14 21:34:00,45.4,43.5,29.16,South,174,7.5,11.5,93,0.00,SCT,,0.35,0.0,WeatherDisplay:10.37,2014-02-14 20:34:00,
2014-02-14 21:39:00,45.6,43.7,29.16,SSW,194,8.4,12.7,93,0.00,SCT,,0.35,0.0,WeatherDisplay:10.37,2014-02-14 20:39:00,
2014-02-14 21:44:00,45.7,43.8,29.15,SSE,158,8.6,19.6,93,0.00,CLR,,0.35,0.0,WeatherDisplay:10.37,2014-02-14 20:44:00,
2014-02-14 21:49:00,45.8,43.9,29.14,South,169,10.4,15.0,93,0.00,CLR,,0.35,0.0,WeatherDisplay:10.37,2014-02-14 20:49:00,
2014-02-14 21:54:00,46.0,44.1,29.15,SSW,203,12.8,15.0,93,0.00,CLR,,0.35,0.0,WeatherDisplay:10.37,2014-02-14 20:54:00,
2014-02-14 21:59:00,46.0,43.8,29.14,SSW,202,9.3,18.4,92,0.00,CLR,,0.35,0.0,WeatherDisplay:10.37,2014-02-14 20:59:00,
2014-02-14 22:04:00,46.0,43.8,29.14,SSE,167,7.9,19.6,92,0.00,CLR,,0.35,0.0,WeatherDisplay:10.37,2014-02-14 21:04:00,
2014-02-14 22:09:00,46.1,43.9,29.13,South,188,7.4,19.6,92,0.00,CLR,,0.35,0.0,WeatherDisplay:10.37,2014-02-14 21:09:00,
2014-02-14 22:14:00,46.1,43.9,29.13,SSE,167,10.2,19.6,92,0.00,OVC,,0.35,0.0,WeatherDisplay:10.37,2014-02-14 21:14:00,
2014-02-14 22:19:00,46.1,43.9,29.13,South,175,7.1,10.4,92,0.00,OVC,,0.35,0.0,WeatherDisplay:10.37,2014-02-14 21:19:00,
2014-02-14 22:24:00,46.1,43.9,29.12,South,174,7.1,18.4,92,0.00,OVC,,0.35,0.0,WeatherDisplay:10.37,2014-02-14 21:24:00,
2014-02-14 22:29:00,46.1,43.9,29.12,South,190,8.8,17.3,92,0.00,OVC,,0.35,0.0,WeatherDisplay:10.37,2014-02-14 21:29:00,
2014-02-14 22:34:00,46.1,43.9,29.11,South,171,8.6,12.7,92,0.00,OVC,,0.35,0.0,WeatherDisplay:10.37,2014-02-14 21:34:00,
2014-02-14 22:39:00,46.1,43.9,29.11,SSE,168,9.3,19.6,92,0.00,OVC,,0.35,0.0,WeatherDisplay:10.37,2014-02-14 21:39:00,
2014-02-14 22:44:00,46.2,44.0,29.11,SSW,192,5.9,12.7,92,0.00,CLR,,0.35,0.0,WeatherDisplay:10.37,2014-02-14 21:44:00,
2014-02-14 22:49:00,46.3,44.1,29.11,SSE,163,9.9,12.7,92,0.00,CLR,,0.35,0.0,WeatherDisplay:10.37,2014-02-14 21:49:00,
2014-02-14 22:54:00,46.5,44.3,29.10,SSE,156,7.9,11.5,92,0.00,CLR,,0.35,0.0,WeatherDisplay:10.37,2014-02-14 21:54:00,
2014-02-14 22:59:00,46.5,44.3,29.09,SE,144,13.1,19.6,92,0.00,CLR,,0.35,0.0,WeatherDisplay:10.37,2014-02-14 21:59:00,
2014-02-14 23:04:00,46.7,44.5,29.09,SE,146,11.3,15.0,92,0.00,CLR,,0.35,0.0,WeatherDisplay:10.37,2014-02-14 22:04:00,
2014-02-14 23:09:00,46.8,44.6,29.09,SSE,165,10.2,11.5,92,0.00,CLR,,0.35,0.0,WeatherDisplay:10.37,2014-02-14 22:09:00,
2014-02-14 23:14:00,47.0,44.8,29.09,South,186,7.2,16.1,92,0.00,CLR,,0.35,0.0,WeatherDisplay:10.37,2014-02-14 22:14:00,
2014-02-14 23:19:00,47.1,44.6,29.10,South,187,14.8,19.6,91,0.00,CLR,,0.35,0.0,WeatherDisplay:10.37,2014-02-14 22:19:00,
2014-02-14 23:24:00,47.4,44.9,29.11,South,188,13.6,17.3,91,0.00,CLR,,0.35,0.0,WeatherDisplay:10.37,2014-02-14 22:24:00,
2014-02-14 23:29:00,47.6,45.1,29.11,South,189,9.9,17.3,91,0.00,CLR,,0.35,0.0,WeatherDisplay:10.37,2014-02-14 22:29:00,
2014-02-14 23:34:00,48.0,45.5,29.11,SSW,211,14.0,22.0,91,0.00,CLR,,0.35,0.0,WeatherDisplay:10.37,2014-02-14 22:34:00,
2014-02-14 23:39:00,48.3,45.8,29.10,South,186,12.8,19.6,91,0.00,CLR,,0.35,0.0,WeatherDisplay:10.37,2014-02-14 22:39:00,
2014-02-14 23:44:00,48.5,46.0,29.10,South,190,14.2,19.6,91,0.00,CLR,,0.35,0.0,WeatherDisplay:10.37,2014-02-14 22:44:00,
2014-02-14 23:49:00,48.8,46.0,29.10,SSW,194,13.3,17.3,90,0.00,CLR,,0.35,0.0,WeatherDisplay:10.37,2014-02-14 22:49:00,
2014-02-14 23:51:00,48.9,46.1,29.10,SSW,203,13.0,19.0,90,0.00,CLR,,0.35,0.0,WeatherDisplay:10.37,2014-02-14 22:51:00,
2014-02-14 23:56:00,49.3,46.5,29.09,SSW,201,12.0,14.0,90,0.00,CLR,,0.35,0.0,WeatherDisplay:10.37,2014-02-14 22:56:00,